Starlink 34374

operational
NORAD ID: 64308 Int'l Des: 2025-123 Owner: SPXS Country: US Constellation: starlink
LEOCIRCULAR

About Starlink 34374

Description loading...

Live Position

Loading 3D Globe...

Upcoming Passes

Altitude History

Altitude vs Time

uPlot chart will show altitude changes over time

Two-Line Element Set

1 64308U 25123T 25340.87487403 .00096288 00000-0 79930-2 0 9992
2 64308 70.0026 68.5576 0003739 294.3613 65.7155 14.98203582 27713
Epoch: Dec 6, 2025 • Age: 10 hours

Current Status

Altitude 584.5 km
Velocity 7.57 km/s
Sub-Earth Point 63.67°N, 65.76°W
Launch Date Jun 8, 2025
Age 0.4 years
Type internet

Technical Details

Classification Payload
Mass 575.00 kg
Dry Mass 530.00 kg
Total Mass 575.00 kg
Length 0.30 m
Diameter 4.10 m
Span 29.00 m
Shape Box + pan
Manufacturer SPXS
Bus Type Starlink V2MO
Phase Status In Orbit
Owner/State SPXS/US

Large Constellations

Loading constellations...